Time,TemperatureF,DewpointF,PressureIn,WindDirection,WindDirectionDegrees,WindSpeedMPH,WindSpeedGustMPH,Humidity,HourlyPrecipIn,Conditions,Clouds,dailyrainin,SolarRadiationWatts/m^2,SoftwareType,DateUTC
2013-01-22 00:00:00,60.5,58.5,30.05,NW,317,0.0,0.0,93,0.00,RA,,0.00,0.0,WeatherDisplay:10.37,2013-01-22 05:00:00,
2013-01-22 00:01:00,60.4,58.4,30.05,NW,317,0.0,0.0,93,0.00,RA,,0.00,0.0,WeatherDisplay:10.37,2013-01-22 05:01:00,
2013-01-22 00:02:00,60.4,58.1,30.05,NW,313,1.9,3.5,92,0.00,RA,,0.00,0.0,WeatherDisplay:10.37,2013-01-22 05:02:00,
2013-01-22 00:07:00,60.5,58.5,30.05,NNW,327,1.0,4.0,93,0.00,RA,,0.00,0.0,WeatherDisplay:10.37,2013-01-22 05:07:00,
2013-01-22 00:12:00,60.5,58.5,30.05,NW,323,0.1,2.3,93,0.00,CLR,,0.00,0.0,WeatherDisplay:10.37,2013-01-22 05:12:00,
2013-01-22 00:17:00,60.6,58.6,30.06,NW,318,0.4,3.0,93,0.00,CLR,,0.00,0.0,WeatherDisplay:10.37,2013-01-22 05:17:00,
2013-01-22 00:22:00,60.6,58.6,30.06,NW,314,0.4,1.1,93,0.00,CLR,,0.00,0.0,WeatherDisplay:10.37,2013-01-22 05:22:00,
2013-01-22 00:27:00,60.7,58.7,30.06,NW,313,0.1,1.1,93,0.00,CLR,,0.00,0.0,WeatherDisplay:10.37,2013-01-22 05:27:00,
2013-01-22 00:32:00,60.7,58.7,30.05,NW,322,2.1,5.8,93,0.00,CLR,,0.00,0.0,WeatherDisplay:10.37,2013-01-22 05:32:00,
2013-01-22 00:37:00,60.7,58.7,30.05,NW,324,0.5,3.5,93,0.00,CLR,,0.00,0.0,WeatherDisplay:10.37,2013-01-22 05:37:00,
2013-01-22 00:42:00,60.8,58.8,30.06,WNW,287,2.9,4.6,93,0.00,CLR,,0.00,0.0,WeatherDisplay:10.37,2013-01-22 05:42:00,
2013-01-22 00:47:00,60.8,58.8,30.06,NW,321,1.6,3.5,93,0.00,CLR,,0.00,0.0,WeatherDisplay:10.37,2013-01-22 05:47:00,
2013-01-22 00:52:00,60.8,58.5,30.06,NNW,331,0.0,3.5,92,0.00,CLR,,0.00,0.0,WeatherDisplay:10.37,2013-01-22 05:52:00,
2013-01-22 00:57:00,60.8,58.5,30.05,NW,325,0.3,3.5,92,0.00,CLR,,0.00,0.0,WeatherDisplay:10.37,2013-01-22 05:57:00,
2013-01-22 01:02:00,60.8,58.5,30.06,NW,325,1.0,3.5,92,0.00,FEW,,0.00,0.0,WeatherDisplay:10.37,2013-01-22 06:02:00,
2013-01-22 01:07:00,60.7,58.4,30.05,West,279,0.0,3.5,92,0.00,FEW,,0.00,0.0,WeatherDisplay:10.37,2013-01-22 06:07:00,
2013-01-22 01:12:00,60.7,58.4,30.06,NW,313,0.0,2.3,92,0.00,FEW,,0.00,0.0,WeatherDisplay:10.37,2013-01-22 06:12:00,
2013-01-22 01:17:00,60.7,58.4,30.05,North,5,1.4,4.6,92,0.00,FEW,,0.00,0.0,WeatherDisplay:10.37,2013-01-22 06:17:00,
2013-01-22 01:22:00,60.6,58.3,30.06,NW,312,1.1,3.5,92,0.00,FEW,,0.00,0.0,WeatherDisplay:10.37,2013-01-22 06:22:00,
2013-01-22 01:27:00,60.6,58.3,30.06,North,360,1.2,4.6,92,0.00,FEW,,0.00,0.0,WeatherDisplay:10.37,2013-01-22 06:27:00,
2013-01-22 01:32:00,60.6,58.3,30.06,NW,310,0.6,4.6,92,0.00,FEW,,0.00,0.0,WeatherDisplay:10.37,2013-01-22 06:32:00,
2013-01-22 01:37:00,60.5,57.9,30.06,NW,323,2.4,3.5,91,0.00,FEW,,0.00,0.0,WeatherDisplay:10.37,2013-01-22 06:37:00,
2013-01-22 01:42:00,60.5,57.9,30.06,NW,312,1.1,0.0,91,0.00,FEW,,0.00,0.0,WeatherDisplay:10.37,2013-01-22 06:42:00,
2013-01-22 01:47:00,60.4,57.8,30.06,NW,313,1.3,3.5,91,0.00,FEW,,0.00,0.0,WeatherDisplay:10.37,2013-01-22 06:47:00,
2013-01-22 01:52:00,60.4,57.8,30.06,North,9,1.7,3.5,91,0.00,FEW,,0.00,0.0,WeatherDisplay:10.37,2013-01-22 06:52:00,
2013-01-22 01:57:00,60.4,57.8,30.05,NW,316,0.3,3.5,91,0.00,FEW,,0.00,0.0,WeatherDisplay:10.37,2013-01-22 06:57:00,
2013-01-22 02:02:00,60.4,57.8,30.05,WNW,293,1.7,5.0,91,0.00,SCT,,0.00,0.0,WeatherDisplay:10.37,2013-01-22 07:02:00,
2013-01-22 02:07:00,60.3,57.7,30.06,NNW,335,2.3,3.5,91,0.00,SCT,,0.00,0.0,WeatherDisplay:10.37,2013-01-22 07:07:00,
2013-01-22 02:12:00,60.3,57.7,30.05,NW,308,1.9,3.5,91,0.00,SCT,,0.00,0.0,WeatherDisplay:10.37,2013-01-22 07:12:00,
2013-01-22 02:17:00,60.2,57.6,30.06,NW,312,1.1,3.5,91,0.00,SCT,,0.00,0.0,WeatherDisplay:10.37,2013-01-22 07:17:00,
2013-01-22 02:22:00,60.2,57.6,30.05,WNW,301,2.0,4.6,91,0.00,SCT,,0.00,0.0,WeatherDisplay:10.37,2013-01-22 07:22:00,
2013-01-22 02:27:00,60.1,57.2,30.05,NW,323,2.7,4.6,90,0.00,SCT,,0.00,0.0,WeatherDisplay:10.37,2013-01-22 07:27:00,
2013-01-22 02:32:00,60.0,57.1,30.05,NW,324,0.6,2.3,90,0.00,SCT,,0.00,0.0,WeatherDisplay:10.37,2013-01-22 07:32:00,
2013-01-22 02:37:00,60.0,57.1,30.05,NW,313,1.2,3.5,90,0.00,SCT,,0.00,0.0,WeatherDisplay:10.37,2013-01-22 07:37:00,
2013-01-22 02:42:00,59.9,56.6,30.05,NNW,332,2.4,5.8,89,0.00,SCT,,0.00,0.0,WeatherDisplay:10.37,2013-01-22 07:42:00,
2013-01-22 02:47:00,59.8,56.6,30.05,NW,308,1.9,6.9,89,0.00,SCT,,0.00,0.0,WeatherDisplay:10.37,2013-01-22 07:47:00,
2013-01-22 02:52:00,59.8,56.2,30.05,NNW,331,1.5,4.0,88,0.00,SCT,,0.00,0.0,WeatherDisplay:10.37,2013-01-22 07:52:00,
2013-01-22 02:57:00,59.7,55.8,30.04,North,355,1.2,4.6,87,0.00,SCT,,0.00,0.0,WeatherDisplay:10.37,2013-01-22 07:57:00,
2013-01-22 03:02:00,59.7,55.8,30.03,North,360,1.3,3.5,87,0.00,CLR,,0.00,0.0,WeatherDisplay:10.37,2013-01-22 08:02:00,
2013-01-22 03:07:00,59.7,55.5,30.04,NNW,345,3.3,3.5,86,0.00,CLR,,0.00,0.0,WeatherDisplay:10.37,2013-01-22 08:07:00,
2013-01-22 03:12:00,59.7,55.5,30.04,NW,320,0.3,2.0,86,0.00,CLR,,0.00,0.0,WeatherDisplay:10.37,2013-01-22 08:12:00,
2013-01-22 03:17:00,59.6,55.4,30.04,North,355,1.6,3.5,86,0.00,CLR,,0.00,0.0,WeatherDisplay:10.37,2013-01-22 08:17:00,
2013-01-22 03:22:00,59.5,55.3,30.05,NW,321,0.7,4.6,86,0.00,CLR,,0.00,0.0,WeatherDisplay:10.37,2013-01-22 08:22:00,
2013-01-22 03:27:00,59.5,55.3,30.05,NW,318,1.0,4.6,86,0.00,CLR,,0.00,0.0,WeatherDisplay:10.37,2013-01-22 08:27:00,
2013-01-22 03:32:00,59.4,55.2,30.04,NW,306,0.1,2.3,86,0.00,CLR,,0.00,0.0,WeatherDisplay:10.37,2013-01-22 08:32:00,
2013-01-22 03:37:00,59.4,54.9,30.04,North,5,2.0,4.6,85,0.00,CLR,,0.00,0.0,WeatherDisplay:10.37,2013-01-22 08:37:00,
2013-01-22 03:42:00,59.4,55.2,30.04,NW,306,1.6,5.8,86,0.00,CLR,,0.00,0.0,WeatherDisplay:10.37,2013-01-22 08:42:00,
2013-01-22 03:47:00,59.4,55.2,30.04,NNW,338,0.4,3.5,86,0.00,CLR,,0.00,0.0,WeatherDisplay:10.37,2013-01-22 08:47:00,
2013-01-22 03:52:00,59.4,54.9,30.04,North,355,2.1,4.6,85,0.00,CLR,,0.00,0.0,WeatherDisplay:10.37,2013-01-22 08:52:00,
2013-01-22 03:57:00,59.4,54.9,30.04,North,349,1.8,5.8,85,0.00,CLR,,0.00,0.0,WeatherDisplay:10.37,2013-01-22 08:57:00,
2013-01-22 04:02:00,59.3,54.8,30.04,NW,317,0.9,4.6,85,0.00,CLR,,0.00,0.0,WeatherDisplay:10.37,2013-01-22 09:02:00,
2013-01-22 04:07:00,59.3,54.8,30.04,NNE,24,2.7,4.6,85,0.00,CLR,,0.00,0.0,WeatherDisplay:10.37,2013-01-22 09:07:00,
2013-01-22 04:12:00,59.2,54.7,30.04,NW,319,0.8,4.6,85,0.00,CLR,,0.00,0.0,WeatherDisplay:10.37,2013-01-22 09:12:00,
2013-01-22 04:17:00,59.2,54.7,30.04,NNW,342,2.6,6.9,85,0.00,CLR,,0.00,0.0,WeatherDisplay:10.37,2013-01-22 09:17:00,
2013-01-22 04:22:00,59.1,54.6,30.04,NW,320,1.1,4.6,85,0.00,CLR,,0.00,0.0,WeatherDisplay:10.37,2013-01-22 09:22:00,
2013-01-22 04:27:00,59.1,54.6,30.04,NW,304,1.9,4.0,85,0.00,CLR,,0.00,0.0,WeatherDisplay:10.37,2013-01-22 09:27:00,
2013-01-22 04:32:00,59.0,54.5,30.04,North,355,0.9,3.5,85,0.00,CLR,,0.00,0.0,WeatherDisplay:10.37,2013-01-22 09:32:00,
2013-01-22 04:37:00,59.0,54.5,30.04,North,9,2.7,3.5,85,0.00,CLR,,0.00,0.0,WeatherDisplay:10.37,2013-01-22 09:37:00,
2013-01-22 04:42:00,58.9,54.4,30.04,NW,322,1.8,3.5,85,0.00,CLR,,0.00,0.0,WeatherDisplay:10.37,2013-01-22 09:42:00,
2013-01-22 04:47:00,58.9,54.1,30.04,NNW,327,1.4,3.5,84,0.00,CLR,,0.00,0.0,WeatherDisplay:10.37,2013-01-22 09:47:00,
2013-01-22 04:52:00,58.8,54.0,30.05,NW,315,2.3,6.9,84,0.00,CLR,,0.00,0.0,WeatherDisplay:10.37,2013-01-22 09:52:00,
2013-01-22 04:57:00,58.9,54.1,30.05,NNW,333,0.9,3.5,84,0.00,CLR,,0.00,0.0,WeatherDisplay:10.37,2013-01-22 09:57:00,
2013-01-22 05:02:00,58.9,54.1,30.05,NW,317,0.2,3.0,84,0.00,CLR,,0.00,0.0,WeatherDisplay:10.37,2013-01-22 10:02:00,
2013-01-22 05:07:00,58.8,53.6,30.05,NNW,330,0.5,3.5,83,0.00,CLR,,0.00,0.0,WeatherDisplay:10.37,2013-01-22 10:07:00,
2013-01-22 05:12:00,58.7,53.5,30.06,North,351,0.0,1.1,83,0.00,CLR,,0.00,0.0,WeatherDisplay:10.37,2013-01-22 10:12:00,
2013-01-22 05:17:00,58.7,53.5,30.05,North,360,1.0,3.5,83,0.00,CLR,,0.00,0.0,WeatherDisplay:10.37,2013-01-22 10:17:00,
2013-01-22 05:22:00,58.6,53.5,30.05,NNW,335,0.1,1.1,83,0.00,CLR,,0.00,0.0,WeatherDisplay:10.37,2013-01-22 10:22:00,
2013-01-22 05:27:00,58.5,53.4,30.06,NW,324,0.4,2.0,83,0.00,CLR,,0.00,0.0,WeatherDisplay:10.37,2013-01-22 10:27:00,
2013-01-22 05:32:00,58.5,53.4,30.06,NW,304,0.2,1.1,83,0.00,CLR,,0.00,0.0,WeatherDisplay:10.37,2013-01-22 10:32:00,
2013-01-22 05:37:00,58.4,53.3,30.06,NW,319,0.0,0.0,83,0.00,CLR,,0.00,0.0,WeatherDisplay:10.37,2013-01-22 10:37:00,
2013-01-22 05:42:00,58.3,53.2,30.06,NNE,20,0.0,1.1,83,0.00,CLR,,0.00,0.0,WeatherDisplay:10.37,2013-01-22 10:42:00,
2013-01-22 05:47:00,58.2,53.1,30.06,NNE,24,0.3,1.1,83,0.00,CLR,,0.00,0.0,WeatherDisplay:10.37,2013-01-22 10:47:00,
2013-01-22 05:52:00,58.1,53.3,30.06,NNE,21,0.1,1.1,84,0.00,CLR,,0.00,0.0,WeatherDisplay:10.37,2013-01-22 10:52:00,
2013-01-22 05:57:00,58.0,52.9,30.06,NNE,16,0.0,1.1,83,0.00,CLR,,0.00,0.0,WeatherDisplay:10.37,2013-01-22 10:57:00,
2013-01-22 06:02:00,57.9,52.8,30.07,NNW,327,1.1,3.5,83,0.00,CLR,,0.00,0.0,WeatherDisplay:10.37,2013-01-22 11:02:00,
2013-01-22 06:07:00,57.8,52.7,30.07,NNW,339,0.2,3.5,83,0.00,CLR,,0.00,0.0,WeatherDisplay:10.37,2013-01-22 11:07:00,
2013-01-22 06:12:00,57.7,52.6,30.08,NW,311,0.0,1.1,83,0.00,CLR,,0.00,0.0,WeatherDisplay:10.37,2013-01-22 11:12:00,
2013-01-22 06:17:00,57.8,52.7,30.08,WNW,300,0.9,3.0,83,0.00,CLR,,0.00,0.0,WeatherDisplay:10.37,2013-01-22 11:17:00,
2013-01-22 06:22:00,57.8,52.7,30.08,WNW,301,0.0,1.1,83,0.00,CLR,,0.00,0.0,WeatherDisplay:10.37,2013-01-22 11:22:00,
2013-01-22 06:27:00,57.7,52.6,30.08,NW,304,0.0,0.0,83,0.00,CLR,,0.00,0.0,WeatherDisplay:10.37,2013-01-22 11:27:00,
2013-01-22 06:32:00,57.6,52.8,30.09,NW,306,0.1,2.3,84,0.00,CLR,,0.00,0.0,WeatherDisplay:10.37,2013-01-22 11:32:00,
2013-01-22 06:37:00,57.5,53.0,30.09,NW,306,0.1,2.3,85,0.00,CLR,,0.00,0.0,WeatherDisplay:10.37,2013-01-22 11:37:00,
2013-01-22 06:42:00,57.3,52.8,30.09,NW,306,0.0,0.0,85,0.00,CLR,,0.00,0.0,WeatherDisplay:10.37,2013-01-22 11:42:00,
2013-01-22 06:47:00,57.2,52.7,30.09,NW,306,0.0,0.0,85,0.00,CLR,,0.00,0.0,WeatherDisplay:10.37,2013-01-22 11:47:00,
2013-01-22 06:52:00,57.1,52.6,30.10,NW,306,0.0,0.0,85,0.00,CLR,,0.00,0.0,WeatherDisplay:10.37,2013-01-22 11:52:00,
2013-01-22 06:57:00,56.9,52.8,30.11,NW,306,0.0,0.0,86,0.00,CLR,,0.00,0.0,WeatherDisplay:10.37,2013-01-22 11:57:00,
2013-01-22 07:02:00,56.7,52.6,30.11,NW,306,0.0,0.0,86,0.00,CLR,,0.00,0.0,WeatherDisplay:10.37,2013-01-22 12:02:00,
2013-01-22 07:07:00,56.5,52.4,30.10,NW,306,0.0,0.0,86,0.00,CLR,,0.00,0.0,WeatherDisplay:10.37,2013-01-22 12:07:00,
2013-01-22 07:13:00,56.3,52.5,30.11,NW,306,0.1,1.1,87,0.00,CLR,,0.00,0.0,WeatherDisplay:10.37,2013-01-22 12:13:00,
2013-01-22 07:18:00,56.0,52.2,30.11,NW,308,0.0,0.0,87,0.00,CLR,,0.00,7.0,WeatherDisplay:10.37,2013-01-22 12:18:00,
2013-01-22 07:23:00,55.9,52.1,30.11,NW,311,0.0,1.1,87,0.00,CLR,,0.00,12.0,WeatherDisplay:10.37,2013-01-22 12:23:00,
2013-01-22 07:28:00,55.8,52.0,30.11,NW,311,0.0,1.1,87,0.00,CLR,,0.00,18.0,WeatherDisplay:10.37,2013-01-22 12:28:00,
2013-01-22 07:33:00,55.8,52.0,30.11,NW,312,0.1,1.1,87,0.00,CLR,,0.00,26.0,WeatherDisplay:10.37,2013-01-22 12:33:00,
2013-01-22 07:38:00,55.8,52.0,30.12,NW,311,0.1,1.1,87,0.00,CLR,,0.00,33.0,WeatherDisplay:10.37,2013-01-22 12:38:00,
2013-01-22 07:43:00,55.9,52.1,30.12,NW,309,2.5,5.0,87,0.00,CLR,,0.00,46.0,WeatherDisplay:10.37,2013-01-22 12:43:00,
2013-01-22 07:48:00,56.1,52.0,30.12,NW,304,0.5,3.5,86,0.00,CLR,,0.00,65.0,WeatherDisplay:10.37,2013-01-22 12:48:00,
2013-01-22 07:53:00,56.2,52.1,30.12,NW,323,0.9,4.6,86,0.00,CLR,,0.00,74.0,WeatherDisplay:10.37,2013-01-22 12:53:00,
2013-01-22 07:58:00,56.4,51.9,30.13,NW,309,2.1,4.6,85,0.00,CLR,,0.00,67.0,WeatherDisplay:10.37,2013-01-22 12:58:00,
2013-01-22 08:03:00,56.6,51.8,30.13,NW,316,1.1,3.5,84,0.00,CLR,,0.00,69.0,WeatherDisplay:10.37,2013-01-22 13:03:00,
2013-01-22 08:08:00,56.8,52.0,30.13,NW,316,0.9,3.5,84,0.00,CLR,,0.00,95.0,WeatherDisplay:10.37,2013-01-22 13:08:00,
2013-01-22 08:13:00,57.0,52.2,30.13,NW,314,0.8,6.9,84,0.00,CLR,,0.00,91.0,WeatherDisplay:10.37,2013-01-22 13:13:00,
2013-01-22 08:18:00,57.2,52.1,30.13,NNW,334,0.8,3.5,83,0.00,CLR,,0.00,109.0,WeatherDisplay:10.37,2013-01-22 13:18:00,
2013-01-22 08:23:00,57.3,51.9,30.13,WNW,296,1.0,3.5,82,0.00,CLR,,0.00,90.0,WeatherDisplay:10.37,2013-01-22 13:23:00,
2013-01-22 08:28:00,57.4,51.9,30.13,NW,325,1.3,3.5,82,0.00,CLR,,0.00,95.0,WeatherDisplay:10.37,2013-01-22 13:28:00,
2013-01-22 08:33:00,57.5,52.0,30.13,NW,325,0.5,3.5,82,0.00,CLR,,0.00,127.0,WeatherDisplay:10.37,2013-01-22 13:33:00,
2013-01-22 08:38:00,57.7,52.2,30.14,North,5,3.3,9.2,82,0.00,CLR,,0.00,123.0,WeatherDisplay:10.37,2013-01-22 13:38:00,
2013-01-22 08:43:00,57.9,52.4,30.14,NNW,328,0.7,2.3,82,0.00,CLR,,0.00,116.0,WeatherDisplay:10.37,2013-01-22 13:43:00,
2013-01-22 08:48:00,58.2,52.7,30.14,NNW,335,1.5,3.5,82,0.00,CLR,,0.00,165.0,WeatherDisplay:10.37,2013-01-22 13:48:00,
2013-01-22 08:53:00,58.7,53.2,30.15,NW,323,1.2,3.5,82,0.00,CLR,,0.00,229.0,WeatherDisplay:10.37,2013-01-22 13:53:00,
2013-01-22 08:58:00,59.3,53.1,30.15,North,350,2.5,6.9,80,0.00,CLR,,0.00,281.0,WeatherDisplay:10.37,2013-01-22 13:58:00,
2013-01-22 09:03:00,60.0,53.5,30.15,NNW,333,2.2,8.1,79,0.00,CLR,,0.00,248.0,WeatherDisplay:10.37,2013-01-22 14:03:00,
2013-01-22 09:08:00,60.6,54.0,30.15,NNE,26,4.1,6.9,79,0.00,CLR,,0.00,353.0,WeatherDisplay:10.37,2013-01-22 14:08:00,
2013-01-22 09:13:00,61.2,53.9,30.15,NW,313,4.2,9.2,77,0.00,CLR,,0.00,399.0,WeatherDisplay:10.37,2013-01-22 14:13:00,
2013-01-22 09:18:00,62.0,54.7,30.15,North,350,1.7,3.5,77,0.00,CLR,,0.00,418.0,WeatherDisplay:10.37,2013-01-22 14:18:00,
2013-01-22 09:23:00,62.6,54.6,30.16,NW,325,3.5,7.0,75,0.00,CLR,,0.00,332.0,WeatherDisplay:10.37,2013-01-22 14:23:00,
2013-01-22 09:28:00,63.1,54.3,30.16,NNW,338,4.0,5.0,73,0.00,CLR,,0.00,427.0,WeatherDisplay:10.37,2013-01-22 14:28:00,
2013-01-22 09:33:00,63.4,54.2,30.16,NNW,343,3.1,6.9,72,0.00,CLR,,0.00,420.0,WeatherDisplay:10.37,2013-01-22 14:33:00,
2013-01-22 09:38:00,63.7,54.1,30.17,NW,325,5.3,9.2,71,0.00,CLR,,0.00,236.0,WeatherDisplay:10.37,2013-01-22 14:38:00,
2013-01-22 09:43:00,63.6,54.0,30.17,NW,314,5.5,10.4,71,0.00,CLR,,0.00,243.0,WeatherDisplay:10.37,2013-01-22 14:43:00,
2013-01-22 09:49:00,63.6,54.0,30.17,North,5,3.8,9.2,71,0.00,CLR,,0.00,221.0,WeatherDisplay:10.37,2013-01-22 14:49:00,
2013-01-22 09:54:00,64.0,54.8,30.17,NNW,327,4.1,6.9,72,0.00,CLR,,0.00,482.0,WeatherDisplay:10.37,2013-01-22 14:54:00,
2013-01-22 09:59:00,64.8,55.2,30.17,NNW,330,5.6,9.2,71,0.00,CLR,,0.00,489.0,WeatherDisplay:10.37,2013-01-22 14:59:00,
2013-01-22 10:04:00,65.4,55.4,30.17,North,349,4.6,5.8,70,0.00,CLR,,0.00,475.0,WeatherDisplay:10.37,2013-01-22 15:04:00,
2013-01-22 10:09:00,66.2,55.7,30.18,NNE,22,2.8,9.2,69,0.00,CLR,,0.00,478.0,WeatherDisplay:10.37,2013-01-22 15:09:00,
2013-01-22 10:14:00,66.8,55.5,30.18,North,355,4.4,10.4,67,0.00,CLR,,0.00,504.0,WeatherDisplay:10.37,2013-01-22 15:14:00,
2013-01-22 10:19:00,66.8,55.5,30.18,NNE,14,4.0,10.4,67,0.00,CLR,,0.00,508.0,WeatherDisplay:10.37,2013-01-22 15:19:00,
2013-01-22 10:24:00,66.9,55.6,30.18,NNE,18,4.4,10.4,67,0.00,CLR,,0.00,244.0,WeatherDisplay:10.37,2013-01-22 15:24:00,
2013-01-22 10:29:00,66.9,55.6,30.18,NNE,17,5.5,8.1,67,0.00,CLR,,0.00,540.0,WeatherDisplay:10.37,2013-01-22 15:29:00,
2013-01-22 10:34:00,67.2,56.3,30.18,WNW,292,5.5,9.2,68,0.00,CLR,,0.00,633.0,WeatherDisplay:10.37,2013-01-22 15:34:00,
2013-01-22 10:39:00,67.5,55.3,30.18,NNE,17,4.5,17.3,65,0.00,CLR,,0.00,596.0,WeatherDisplay:10.37,2013-01-22 15:39:00,
2013-01-22 10:44:00,67.7,55.5,30.18,ENE,63,10.4,15.0,65,0.00,CLR,,0.00,599.0,WeatherDisplay:10.37,2013-01-22 15:44:00,
2013-01-22 10:49:00,67.9,55.7,30.18,NNW,333,5.9,12.7,65,0.00,CLR,,0.00,601.0,WeatherDisplay:10.37,2013-01-22 15:49:00,
2013-01-22 10:54:00,68.0,56.2,30.18,North,349,6.3,9.2,66,0.00,CLR,,0.00,552.0,WeatherDisplay:10.37,2013-01-22 15:54:00,
2013-01-22 10:59:00,68.1,55.9,30.18,NE,42,8.6,12.7,65,0.00,CLR,,0.00,635.0,WeatherDisplay:10.37,2013-01-22 15:59:00,
2013-01-22 11:04:00,68.1,55.5,30.19,North,9,7.7,11.5,64,0.00,CLR,,0.00,633.0,WeatherDisplay:10.37,2013-01-22 16:04:00,
2013-01-22 11:09:00,68.3,54.8,30.19,NNW,333,6.0,15.0,62,0.00,CLR,,0.00,548.0,WeatherDisplay:10.37,2013-01-22 16:09:00,
2013-01-22 11:14:00,68.4,54.9,30.19,NNW,340,7.0,15.0,62,0.00,CLR,,0.00,612.0,WeatherDisplay:10.37,2013-01-22 16:14:00,
2013-01-22 11:19:00,68.5,54.1,30.19,North,350,7.9,16.0,60,0.00,CLR,,0.00,605.0,WeatherDisplay:10.37,2013-01-22 16:19:00,
2013-01-22 11:24:00,68.3,53.4,30.19,West,259,8.0,15.0,59,0.00,CLR,,0.00,540.0,WeatherDisplay:10.37,2013-01-22 16:24:00,
2013-01-22 11:29:00,68.3,53.4,30.19,NNW,328,8.1,19.6,59,0.00,CLR,,0.00,504.0,WeatherDisplay:10.37,2013-01-22 16:29:00,
2013-01-22 11:34:00,68.8,53.9,30.19,North,355,4.1,10.4,59,0.00,CLR,,0.00,652.0,WeatherDisplay:10.37,2013-01-22 16:34:00,
2013-01-22 11:39:00,69.2,53.8,30.19,NW,323,5.2,11.5,58,0.00,CLR,,0.00,666.0,WeatherDisplay:10.37,2013-01-22 16:39:00,
2013-01-22 11:44:00,69.3,53.9,30.19,NE,54,7.4,11.5,58,0.00,CLR,,0.00,656.0,WeatherDisplay:10.37,2013-01-22 16:44:00,
2013-01-22 11:49:00,69.4,54.0,30.19,North,355,4.8,9.2,58,0.00,CLR,,0.00,584.0,WeatherDisplay:10.37,2013-01-22 16:49:00,
2013-01-22 11:54:00,69.6,53.7,30.19,ENE,57,4.5,12.7,57,0.00,CLR,,0.00,621.0,WeatherDisplay:10.37,2013-01-22 16:54:00,
2013-01-22 11:59:00,69.6,52.7,30.19,NNW,333,7.9,10.4,55,0.00,CLR,,0.00,606.0,WeatherDisplay:10.37,2013-01-22 16:59:00,
2013-01-22 12:04:00,69.2,52.8,30.19,North,5,6.1,10.4,56,0.00,CLR,,0.00,617.0,WeatherDisplay:10.37,2013-01-22 17:04:00,
2013-01-22 12:09:00,69.4,52.5,30.18,NE,41,4.8,10.4,55,0.00,CLR,,0.00,575.0,WeatherDisplay:10.37,2013-01-22 17:09:00,
2013-01-22 12:14:00,69.1,51.2,30.18,NW,317,5.6,12.7,53,0.00,CLR,,0.00,497.0,WeatherDisplay:10.37,2013-01-22 17:14:00,
2013-01-22 12:19:00,69.3,53.4,30.18,North,5,1.5,7.0,57,0.00,CLR,,0.00,436.0,WeatherDisplay:10.37,2013-01-22 17:19:00,
2013-01-22 12:24:00,69.4,51.5,30.19,NNE,21,7.0,11.5,53,0.00,CLR,,0.00,555.0,WeatherDisplay:10.37,2013-01-22 17:24:00,
2013-01-22 12:29:00,69.3,51.4,30.18,NNE,22,4.4,15.0,53,0.00,CLR,,0.00,661.0,WeatherDisplay:10.37,2013-01-22 17:29:00,
2013-01-22 12:34:00,69.5,51.1,30.18,North,9,6.7,13.0,52,0.00,CLR,,0.00,573.0,WeatherDisplay:10.37,2013-01-22 17:34:00,
2013-01-22 12:39:00,69.3,50.9,30.18,ENE,64,4.1,11.5,52,0.00,CLR,,0.00,448.0,WeatherDisplay:10.37,2013-01-22 17:39:00,
2013-01-22 12:44:00,69.2,50.8,30.17,NNW,346,4.3,10.4,52,0.00,CLR,,0.00,568.0,WeatherDisplay:10.37,2013-01-22 17:44:00,
2013-01-22 12:49:00,68.9,50.5,30.17,NW,323,8.3,9.2,52,0.00,CLR,,0.00,454.0,WeatherDisplay:10.37,2013-01-22 17:49:00,
2013-01-22 12:54:00,68.9,51.1,30.17,North,355,3.4,11.5,53,0.00,CLR,,0.00,698.0,WeatherDisplay:10.37,2013-01-22 17:54:00,
2013-01-22 12:59:00,69.6,50.7,30.17,North,360,7.3,10.4,51,0.00,CLR,,0.00,591.0,WeatherDisplay:10.37,2013-01-22 17:59:00,
2013-01-22 13:04:00,69.6,51.2,30.17,NNE,13,4.7,11.5,52,0.00,CLR,,0.00,698.0,WeatherDisplay:10.37,2013-01-22 18:04:00,
2013-01-22 13:09:00,69.5,50.6,30.17,NE,43,5.1,8.1,51,0.00,CLR,,0.00,425.0,WeatherDisplay:10.37,2013-01-22 18:09:00,
2013-01-22 13:14:00,69.2,49.2,30.17,North,360,5.6,12.7,49,0.00,CLR,,0.00,582.0,WeatherDisplay:10.37,2013-01-22 18:14:00,
2013-01-22 13:19:00,69.3,50.9,30.17,NNE,25,7.0,9.2,52,0.00,CLR,,0.00,429.0,WeatherDisplay:10.37,2013-01-22 18:19:00,
2013-01-22 13:24:00,69.2,50.3,30.17,NNE,25,6.1,10.4,51,0.00,CLR,,0.00,343.0,WeatherDisplay:10.37,2013-01-22 18:24:00,
2013-01-22 13:29:00,68.3,50.0,30.17,NNE,28,4.4,8.1,52,0.00,CLR,,0.00,295.0,WeatherDisplay:10.37,2013-01-22 18:29:00,
2013-01-22 13:34:00,67.6,49.9,30.17,NNW,346,4.8,10.4,53,0.00,CLR,,0.00,229.0,WeatherDisplay:10.37,2013-01-22 18:34:00,
2013-01-22 13:39:00,67.2,50.5,30.17,NNE,17,3.5,9.2,55,0.00,CLR,,0.00,216.0,WeatherDisplay:10.37,2013-01-22 18:39:00,
2013-01-22 13:44:00,67.0,50.3,30.17,NW,321,3.4,8.1,55,0.00,CLR,,0.00,227.0,WeatherDisplay:10.37,2013-01-22 18:44:00,
2013-01-22 13:49:00,66.6,49.4,30.17,North,360,4.4,8.1,54,0.00,CLR,,0.00,255.0,WeatherDisplay:10.37,2013-01-22 18:49:00,
2013-01-22 13:54:00,66.5,49.8,30.16,NE,45,2.3,8.1,55,0.00,CLR,,0.00,260.0,WeatherDisplay:10.37,2013-01-22 18:54:00,
2013-01-22 13:59:00,66.5,49.8,30.16,North,350,3.8,9.2,55,0.00,CLR,,0.00,244.0,WeatherDisplay:10.37,2013-01-22 18:59:00,
2013-01-22 14:04:00,66.5,50.8,30.16,North,355,3.7,9.2,57,0.00,CLR,,0.00,243.0,WeatherDisplay:10.37,2013-01-22 19:04:00,
2013-01-22 14:09:00,66.2,49.1,30.16,NE,45,5.5,11.5,54,0.00,CLR,,0.00,220.0,WeatherDisplay:10.37,2013-01-22 19:09:00,
2013-01-22 14:14:00,65.8,48.2,30.16,NE,50,7.8,18.4,53,0.00,CLR,,0.00,214.0,WeatherDisplay:10.37,2013-01-22 19:14:00,
2013-01-22 14:19:00,65.4,48.3,30.16,NNW,329,8.7,13.8,54,0.00,CLR,,0.00,213.0,WeatherDisplay:10.37,2013-01-22 19:19:00,
2013-01-22 14:24:00,65.3,48.2,30.16,NNW,330,3.9,6.9,54,0.00,CLR,,0.00,193.0,WeatherDisplay:10.37,2013-01-22 19:24:00,
2013-01-22 14:29:00,65.3,48.7,30.16,West,277,5.6,15.0,55,0.00,CLR,,0.00,218.0,WeatherDisplay:10.37,2013-01-22 19:29:00,
2013-01-22 14:34:00,65.4,49.8,30.16,North,355,7.3,11.5,57,0.00,CLR,,0.00,220.0,WeatherDisplay:10.37,2013-01-22 19:34:00,
2013-01-22 14:39:00,65.4,50.2,30.16,NNE,17,5.1,16.1,58,0.00,CLR,,0.00,257.0,WeatherDisplay:10.37,2013-01-22 19:39:00,
2013-01-22 14:44:00,65.4,50.2,30.16,NNE,27,4.3,8.1,58,0.00,CLR,,0.00,267.0,WeatherDisplay:10.37,2013-01-22 19:44:00,
2013-01-22 14:49:00,65.3,50.1,30.16,ENE,69,8.7,14.0,58,0.00,CLR,,0.00,272.0,WeatherDisplay:10.37,2013-01-22 19:49:00,
2013-01-22 14:54:00,65.4,51.1,30.16,NW,325,2.3,6.9,60,0.00,CLR,,0.00,241.0,WeatherDisplay:10.37,2013-01-22 19:54:00,
2013-01-22 14:59:00,65.4,50.2,30.16,North,10,6.5,13.8,58,0.00,CLR,,0.00,216.0,WeatherDisplay:10.37,2013-01-22 19:59:00,
2013-01-22 15:04:00,65.1,50.4,30.17,North,351,3.5,9.2,59,0.00,CLR,,0.00,213.0,WeatherDisplay:10.37,2013-01-22 20:04:00,
2013-01-22 15:09:00,64.9,50.7,30.17,NNW,343,2.5,5.8,60,0.00,CLR,,0.00,200.0,WeatherDisplay:10.37,2013-01-22 20:09:00,
2013-01-22 15:14:00,64.8,50.6,30.17,North,355,2.5,6.9,60,0.00,CLR,,0.00,202.0,WeatherDisplay:10.37,2013-01-22 20:14:00,
2013-01-22 15:19:00,64.7,50.5,30.17,North,355,6.0,15.0,60,0.00,CLR,,0.00,195.0,WeatherDisplay:10.37,2013-01-22 20:19:00,
2013-01-22 15:24:00,64.4,50.2,30.17,NW,313,2.9,9.0,60,0.00,CLR,,0.00,181.0,WeatherDisplay:10.37,2013-01-22 20:24:00,
2013-01-22 15:29:00,64.1,50.4,30.18,NNE,14,4.2,9.2,61,0.00,CLR,,0.00,172.0,WeatherDisplay:10.37,2013-01-22 20:29:00,
2013-01-22 15:34:00,64.0,50.7,30.18,NW,315,3.6,8.0,62,0.00,CLR,,0.00,156.0,WeatherDisplay:10.37,2013-01-22 20:34:00,
2013-01-22 15:39:00,63.7,50.4,30.18,NNW,330,3.2,9.2,62,0.00,CLR,,0.00,158.0,WeatherDisplay:10.37,2013-01-22 20:39:00,
2013-01-22 15:44:00,63.6,50.3,30.18,NE,43,7.2,12.7,62,0.00,CLR,,0.00,142.0,WeatherDisplay:10.37,2013-01-22 20:44:00,
2013-01-22 15:49:00,63.3,50.1,30.18,North,11,4.8,8.1,62,0.00,CLR,,0.00,139.0,WeatherDisplay:10.37,2013-01-22 20:49:00,
2013-01-22 15:54:00,63.2,50.8,30.18,NNW,336,3.2,8.1,64,0.00,CLR,,0.00,139.0,WeatherDisplay:10.37,2013-01-22 20:54:00,
2013-01-22 15:59:00,63.0,50.2,30.18,NNE,16,6.0,11.5,63,0.00,CLR,,0.00,125.0,WeatherDisplay:10.37,2013-01-22 20:59:00,
2013-01-22 16:04:00,62.8,50.4,30.19,North,5,5.0,13.8,64,0.00,CLR,,0.00,128.0,WeatherDisplay:10.37,2013-01-22 21:04:00,
2013-01-22 16:09:00,62.7,50.3,30.19,NNW,338,6.5,10.4,64,0.00,CLR,,0.00,128.0,WeatherDisplay:10.37,2013-01-22 21:09:00,
2013-01-22 16:14:00,62.5,50.2,30.19,North,360,6.3,11.5,64,0.00,CLR,,0.00,128.0,WeatherDisplay:10.37,2013-01-22 21:14:00,
2013-01-22 16:19:00,62.3,50.4,30.20,NW,321,4.0,9.2,65,0.00,CLR,,0.00,102.0,WeatherDisplay:10.37,2013-01-22 21:19:00,
2013-01-22 16:24:00,62.1,49.8,30.20,NNE,26,7.0,11.5,64,0.00,CLR,,0.00,93.0,WeatherDisplay:10.37,2013-01-22 21:24:00,
2013-01-22 16:29:00,61.8,49.5,30.20,NNE,28,3.9,8.1,64,0.00,CLR,,0.00,88.0,WeatherDisplay:10.37,2013-01-22 21:29:00,
2013-01-22 16:31:00,61.8,49.9,30.20,North,355,3.5,8.1,65,0.00,CLR,,0.00,86.0,WeatherDisplay:10.37,2013-01-22 21:31:00,
2013-01-22 16:37:00,61.6,49.7,30.20,North,355,5.0,9.0,65,0.00,CLR,,0.00,81.0,WeatherDisplay:10.37,2013-01-22 21:37:00,
2013-01-22 16:42:00,61.4,49.5,30.20,NNW,341,5.3,8.1,65,0.00,CLR,,0.00,76.0,WeatherDisplay:10.37,2013-01-22 21:42:00,
2013-01-22 16:47:00,61.4,49.5,30.21,NNE,28,4.3,10.4,65,0.00,CLR,,0.00,63.0,WeatherDisplay:10.37,2013-01-22 21:47:00,
2013-01-22 16:52:00,61.2,49.3,30.21,NNE,15,4.5,10.4,65,0.00,CLR,,0.00,60.0,WeatherDisplay:10.37,2013-01-22 21:52:00,
2013-01-22 16:57:00,61.1,49.2,30.21,NW,308,5.1,9.2,65,0.00,CLR,,0.00,56.0,WeatherDisplay:10.37,2013-01-22 21:57:00,
2013-01-22 17:02:00,61.0,49.1,30.21,North,360,3.5,6.9,65,0.00,CLR,,0.00,46.0,WeatherDisplay:10.37,2013-01-22 22:02:00,
2013-01-22 17:07:00,60.9,49.5,30.22,NNW,328,0.2,5.8,66,0.00,CLR,,0.00,40.0,WeatherDisplay:10.37,2013-01-22 22:07:00,
2013-01-22 17:12:00,60.8,49.0,30.21,NNE,15,1.8,6.9,65,0.00,CLR,,0.00,40.0,WeatherDisplay:10.37,2013-01-22 22:12:00,
2013-01-22 17:17:00,60.6,48.8,30.22,NNE,21,5.9,9.2,65,0.00,CLR,,0.00,37.0,WeatherDisplay:10.37,2013-01-22 22:17:00,
2013-01-22 17:22:00,60.5,48.7,30.22,North,360,3.2,6.9,65,0.00,CLR,,0.00,33.0,WeatherDisplay:10.37,2013-01-22 22:22:00,
2013-01-22 17:27:00,60.4,48.6,30.22,North,360,4.7,11.5,65,0.00,CLR,,0.00,18.0,WeatherDisplay:10.37,2013-01-22 22:27:00,
2013-01-22 17:32:00,60.3,48.5,30.22,North,355,2.1,8.1,65,0.00,CLR,,0.00,14.0,WeatherDisplay:10.37,2013-01-22 22:32:00,
2013-01-22 17:37:00,60.1,47.9,30.22,North,11,3.1,4.6,64,0.00,CLR,,0.00,14.0,WeatherDisplay:10.37,2013-01-22 22:37:00,
2013-01-22 17:42:00,60.0,47.8,30.22,North,11,2.8,8.1,64,0.00,CLR,,0.00,14.0,WeatherDisplay:10.37,2013-01-22 22:42:00,
2013-01-22 17:47:00,59.9,47.7,30.22,North,355,5.0,8.1,64,0.00,CLR,,0.00,12.0,WeatherDisplay:10.37,2013-01-22 22:47:00,
2013-01-22 17:53:00,59.7,47.5,30.22,WNW,289,3.1,8.1,64,0.00,CLR,,0.00,5.0,WeatherDisplay:10.37,2013-01-22 22:53:00,
2013-01-22 17:58:00,59.5,47.3,30.22,NNW,343,2.2,4.6,64,0.00,CLR,,0.00,0.0,WeatherDisplay:10.37,2013-01-22 22:58:00,
2013-01-22 18:03:00,59.4,47.6,30.22,NNE,21,2.5,5.8,65,0.00,CLR,,0.00,0.0,WeatherDisplay:10.37,2013-01-22 23:03:00,
2013-01-22 18:08:00,59.2,47.4,30.22,North,10,2.2,4.6,65,0.00,CLR,,0.00,0.0,WeatherDisplay:10.37,2013-01-22 23:08:00,
2013-01-22 18:13:00,59.1,47.3,30.22,NE,49,2.8,5.0,65,0.00,CLR,,0.00,0.0,WeatherDisplay:10.37,2013-01-22 23:13:00,
2013-01-22 18:18:00,59.0,47.2,30.22,NNW,344,1.2,3.5,65,0.00,CLR,,0.00,0.0,WeatherDisplay:10.37,2013-01-22 23:18:00,
2013-01-22 18:23:00,58.9,47.2,30.22,North,5,2.9,6.9,65,0.00,CLR,,0.00,0.0,WeatherDisplay:10.37,2013-01-22 23:23:00,
2013-01-22 18:28:00,58.8,47.5,30.23,NNW,345,1.8,4.0,66,0.00,CLR,,0.00,0.0,WeatherDisplay:10.37,2013-01-22 23:28:00,
2013-01-22 18:33:00,58.7,47.4,30.23,NNW,334,1.1,5.0,66,0.00,CLR,,0.00,0.0,WeatherDisplay:10.37,2013-01-22 23:33:00,
2013-01-22 18:38:00,58.5,47.2,30.23,North,5,1.6,5.8,66,0.00,CLR,,0.00,0.0,WeatherDisplay:10.37,2013-01-22 23:38:00,
2013-01-22 18:43:00,58.3,47.4,30.23,North,5,2.4,5.8,67,0.00,CLR,,0.00,0.0,WeatherDisplay:10.37,2013-01-22 23:43:00,
2013-01-22 18:48:00,58.2,47.3,30.23,North,355,1.5,4.6,67,0.00,CLR,,0.00,0.0,WeatherDisplay:10.37,2013-01-22 23:48:00,
2013-01-22 18:53:00,58.0,47.1,30.23,NNE,26,0.8,8.1,67,0.00,CLR,,0.00,0.0,WeatherDisplay:10.37,2013-01-22 23:53:00,
2013-01-22 18:58:00,57.9,47.4,30.23,North,360,0.6,3.5,68,0.00,CLR,,0.00,0.0,WeatherDisplay:10.37,2013-01-22 23:58:00,
2013-01-22 19:03:00,57.8,47.3,30.23,NNE,28,1.8,6.9,68,0.00,CLR,,0.00,0.0,WeatherDisplay:10.37,2013-01-23 00:03:00,
2013-01-22 19:08:00,57.6,47.1,30.23,NW,305,2.0,3.5,68,0.00,CLR,,0.00,0.0,WeatherDisplay:10.37,2013-01-23 00:08:00,
2013-01-22 19:13:00,57.4,46.9,30.23,WNW,292,1.2,6.9,68,0.00,CLR,,0.00,0.0,WeatherDisplay:10.37,2013-01-23 00:13:00,
2013-01-22 19:18:00,57.3,46.8,30.23,NNW,342,0.8,3.5,68,0.00,CLR,,0.00,0.0,WeatherDisplay:10.37,2013-01-23 00:18:00,
2013-01-22 19:23:00,57.2,47.1,30.23,WNW,284,0.7,3.5,69,0.00,CLR,,0.00,0.0,WeatherDisplay:10.37,2013-01-23 00:23:00,
2013-01-22 19:28:00,56.9,46.8,30.24,North,360,0.2,0.0,69,0.00,CLR,,0.00,0.0,WeatherDisplay:10.37,2013-01-23 00:28:00,
2013-01-22 19:33:00,56.8,47.1,30.24,NNE,26,0.2,2.0,70,0.00,CLR,,0.00,0.0,WeatherDisplay:10.37,2013-01-23 00:33:00,
2013-01-22 19:38:00,56.6,46.9,30.24,NNW,341,2.7,2.7,70,0.00,CLR,,0.00,0.0,WeatherDisplay:10.37,2013-01-23 00:38:00,
2013-01-22 19:43:00,56.5,46.8,30.24,NNW,340,1.8,6.0,70,0.00,CLR,,0.00,0.0,WeatherDisplay:10.37,2013-01-23 00:43:00,
2013-01-22 19:48:00,56.3,47.0,30.24,NNW,329,1.0,3.5,71,0.00,CLR,,0.00,0.0,WeatherDisplay:10.37,2013-01-23 00:48:00,
2013-01-22 19:53:00,56.2,46.9,30.24,North,355,0.2,2.3,71,0.00,CLR,,0.00,0.0,WeatherDisplay:10.37,2013-01-23 00:53:00,
2013-01-22 19:58:00,56.1,46.8,30.24,North,5,0.4,2.3,71,0.00,CLR,,0.00,0.0,WeatherDisplay:10.37,2013-01-23 00:58:00,
2013-01-22 20:03:00,56.0,46.7,30.24,NNW,340,1.4,2.3,71,0.00,CLR,,0.00,0.0,WeatherDisplay:10.37,2013-01-23 01:03:00,
2013-01-22 20:08:00,55.8,46.9,30.24,NNE,14,0.5,3.5,72,0.00,CLR,,0.00,0.0,WeatherDisplay:10.37,2013-01-23 01:08:00,
2013-01-22 20:13:00,55.7,46.8,30.24,NNE,16,0.9,4.0,72,0.00,CLR,,0.00,0.0,WeatherDisplay:10.37,2013-01-23 01:13:00,
2013-01-22 20:18:00,55.5,46.6,30.24,North,5,0.0,2.3,72,0.00,CLR,,0.00,0.0,WeatherDisplay:10.37,2013-01-23 01:18:00,
2013-01-22 20:23:00,55.3,46.8,30.24,NNW,348,0.0,1.1,73,0.00,CLR,,0.00,0.0,WeatherDisplay:10.37,2013-01-23 01:23:00,
2013-01-22 20:28:00,55.2,46.7,30.24,North,10,0.5,1.1,73,0.00,CLR,,0.00,0.0,WeatherDisplay:10.37,2013-01-23 01:28:00,
2013-01-22 20:33:00,55.0,46.5,30.25,NNW,336,0.6,2.3,73,0.00,CLR,,0.00,0.0,WeatherDisplay:10.37,2013-01-23 01:33:00,
2013-01-22 20:38:00,54.9,46.8,30.25,North,360,1.2,2.3,74,0.00,CLR,,0.00,0.0,WeatherDisplay:10.37,2013-01-23 01:38:00,
2013-01-22 20:43:00,54.9,46.8,30.25,NNW,330,0.4,2.3,74,0.00,CLR,,0.00,0.0,WeatherDisplay:10.37,2013-01-23 01:43:00,
2013-01-22 20:48:00,54.9,46.8,30.25,NW,320,0.5,2.3,74,0.00,CLR,,0.00,0.0,WeatherDisplay:10.37,2013-01-23 01:48:00,
2013-01-22 20:53:00,54.9,46.8,30.25,North,355,1.1,4.0,74,0.00,CLR,,0.00,0.0,WeatherDisplay:10.37,2013-01-23 01:53:00,
2013-01-22 20:58:00,54.9,46.8,30.25,North,355,0.5,2.3,74,0.00,CLR,,0.00,0.0,WeatherDisplay:10.37,2013-01-23 01:58:00,
2013-01-22 21:03:00,54.9,46.8,30.25,North,355,0.1,1.1,74,0.00,CLR,,0.00,0.0,WeatherDisplay:10.37,2013-01-23 02:03:00,
2013-01-22 21:08:00,54.9,46.8,30.25,NW,313,0.5,3.5,74,0.00,CLR,,0.00,0.0,WeatherDisplay:10.37,2013-01-23 02:08:00,
2013-01-22 21:13:00,54.8,46.7,30.25,NW,320,0.0,1.1,74,0.00,CLR,,0.00,0.0,WeatherDisplay:10.37,2013-01-23 02:13:00,
2013-01-22 21:18:00,54.8,46.7,30.26,NW,324,0.6,2.3,74,0.00,CLR,,0.00,0.0,WeatherDisplay:10.37,2013-01-23 02:18:00,
2013-01-22 21:23:00,54.7,46.6,30.26,NNW,327,0.5,1.1,74,0.00,CLR,,0.00,0.0,WeatherDisplay:10.37,2013-01-23 02:23:00,
2013-01-22 21:28:00,54.6,46.5,30.25,NNE,21,0.3,1.1,74,0.00,CLR,,0.00,0.0,WeatherDisplay:10.37,2013-01-23 02:28:00,
2013-01-22 21:33:00,54.5,46.4,30.26,NNE,14,0.7,0.0,74,0.00,CLR,,0.00,0.0,WeatherDisplay:10.37,2013-01-23 02:33:00,
2013-01-22 21:38:00,54.4,46.6,30.26,NNE,12,0.0,1.1,75,0.00,CLR,,0.00,0.0,WeatherDisplay:10.37,2013-01-23 02:38:00,
2013-01-22 21:43:00,54.3,46.5,30.26,NNE,12,0.0,2.3,75,0.00,CLR,,0.00,0.0,WeatherDisplay:10.37,2013-01-23 02:43:00,
2013-01-22 21:48:00,54.2,46.4,30.26,NNE,12,0.1,1.1,75,0.00,CLR,,0.00,0.0,WeatherDisplay:10.37,2013-01-23 02:48:00,
2013-01-22 21:53:00,54.0,46.3,30.26,NW,318,0.1,1.1,75,0.00,CLR,,0.00,0.0,WeatherDisplay:10.37,2013-01-23 02:53:00,
2013-01-22 21:58:00,53.8,46.1,30.26,NW,319,0.1,1.1,75,0.00,CLR,,0.00,0.0,WeatherDisplay:10.37,2013-01-23 02:58:00,
2013-01-22 22:03:00,53.6,46.2,30.26,NW,318,0.2,1.1,76,0.00,CLR,,0.00,0.0,WeatherDisplay:10.37,2013-01-23 03:03:00,
2013-01-22 22:08:00,53.5,46.1,30.26,NW,318,0.5,0.0,76,0.00,CLR,,0.00,0.0,WeatherDisplay:10.37,2013-01-23 03:08:00,
2013-01-22 22:13:00,53.3,46.3,30.27,NW,326,0.2,1.1,77,0.00,CLR,,0.00,0.0,WeatherDisplay:10.37,2013-01-23 03:13:00,
2013-01-22 22:18:00,53.2,46.2,30.27,NW,317,0.1,2.0,77,0.00,CLR,,0.00,0.0,WeatherDisplay:10.37,2013-01-23 03:18:00,
2013-01-22 22:23:00,53.1,46.4,30.27,NNW,345,0.4,5.0,78,0.00,CLR,,0.00,0.0,WeatherDisplay:10.37,2013-01-23 03:23:00,
2013-01-22 22:28:00,53.1,46.4,30.27,NW,306,0.1,4.6,78,0.00,CLR,,0.00,0.0,WeatherDisplay:10.37,2013-01-23 03:28:00,
2013-01-22 22:33:00,53.0,46.3,30.27,NW,308,0.4,2.3,78,0.00,CLR,,0.00,0.0,WeatherDisplay:10.37,2013-01-23 03:33:00,
2013-01-22 22:38:00,52.8,46.1,30.27,NW,309,0.2,2.3,78,0.00,CLR,,0.00,0.0,WeatherDisplay:10.37,2013-01-23 03:38:00,
2013-01-22 22:43:00,52.6,46.3,30.27,NW,309,0.6,1.1,79,0.00,CLR,,0.00,0.0,WeatherDisplay:10.37,2013-01-23 03:43:00,
2013-01-22 22:48:00,52.4,46.1,30.27,NW,309,0.5,2.3,79,0.00,CLR,,0.00,0.0,WeatherDisplay:10.37,2013-01-23 03:48:00,
2013-01-22 22:53:00,52.3,46.3,30.26,NW,306,0.1,0.0,80,0.00,CLR,,0.00,0.0,WeatherDisplay:10.37,2013-01-23 03:53:00,
2013-01-22 22:58:00,52.2,46.2,30.27,NW,305,0.9,2.0,80,0.00,CLR,,0.00,0.0,WeatherDisplay:10.37,2013-01-23 03:58:00,
2013-01-22 23:03:00,52.1,46.1,30.27,NW,306,0.0,0.0,80,0.00,CLR,,0.00,0.0,WeatherDisplay:10.37,2013-01-23 04:03:00,
2013-01-22 23:08:00,52.0,46.0,30.27,NW,305,0.7,2.3,80,0.00,CLR,,0.00,0.0,WeatherDisplay:10.37,2013-01-23 04:08:00,
2013-01-22 23:13:00,52.0,46.0,30.27,NW,305,0.1,1.0,80,0.00,CLR,,0.00,0.0,WeatherDisplay:10.37,2013-01-23 04:13:00,
2013-01-22 23:18:00,52.0,46.0,30.26,NW,305,0.0,0.0,80,0.00,CLR,,0.00,0.0,WeatherDisplay:10.37,2013-01-23 04:18:00,
2013-01-22 23:23:00,51.9,45.9,30.27,NW,305,0.0,0.0,80,0.00,CLR,,0.00,0.0,WeatherDisplay:10.37,2013-01-23 04:23:00,
2013-01-22 23:28:00,51.9,45.9,30.26,NW,305,0.0,0.0,80,0.00,CLR,,0.00,0.0,WeatherDisplay:10.37,2013-01-23 04:28:00,
2013-01-22 23:33:00,51.8,45.8,30.26,NW,305,0.0,2.3,80,0.00,CLR,,0.00,0.0,WeatherDisplay:10.37,2013-01-23 04:33:00,
2013-01-22 23:38:00,51.7,45.7,30.26,NW,305,0.0,1.1,80,0.00,CLR,,0.00,0.0,WeatherDisplay:10.37,2013-01-23 04:38:00,
2013-01-22 23:43:00,51.6,45.6,30.26,NW,305,0.3,3.5,80,0.00,CLR,,0.00,0.0,WeatherDisplay:10.37,2013-01-23 04:43:00,
2013-01-22 23:48:00,51.5,45.5,30.27,NW,305,0.0,2.3,80,0.00,CLR,,0.00,0.0,WeatherDisplay:10.37,2013-01-23 04:48:00,
2013-01-22 23:53:00,51.4,45.4,30.26,NW,305,0.0,0.0,80,0.00,CLR,,0.00,0.0,WeatherDisplay:10.37,2013-01-23 04:53:00,
2013-01-22 23:58:00,51.3,45.7,30.27,NW,305,0.0,0.0,81,0.00,CLR,,0.00,0.0,WeatherDisplay:10.37,2013-01-23 04:58:00,